Flag Weather past 2 weeks in Irving, Texas, U.S.A.

Now
56 °F

Clear.


Feels Like: 53 °F
Forecast: 48 / 65 °F
Wind: 12 mph from North

Location: Dallas / Fort Worth International Airport

Current Time: Oct 31, 2014 at 5:15:10 AM

Latest Report: Oct 31, 2014 at 3:53 AM


Visibility: 10 mi

Pressure: 30.17 "Hg

Humidity: 65%

Dew point: 44 °F

Location of IrvingLocation

Historic Weather in Irving — Graph

°F

Irving temperature yesterday

Maximum temperature yesterday: 77 °F (at 2:53 PM)
Minimum temperature yesterday: 54 °F (at 7:53 AM)
Average temperature yesterday: 65 °F

Past Weeks' High & Low Weather Summary

 TemperatureHumidityPressure
High89 °F (Oct 16, 2:53 PM)91% (Oct 22, 8:53 AM)30.22 "Hg (Oct 22, 8:53 AM)
Low54 °F (Oct 29, 7:53 AM)19% (Oct 16, 2:53 PM)29.74 "Hg (Oct 27, 5:53 PM)
Average71 °F59%30.01 "Hg
* Reported Oct 16 3:53 AM — Oct 31 3:53 AM, Irving, Weather by CustomWeather, © 2014

Note: Actual official high and low records may vary slightly from our data, if they occured in-between our weather recording intervals... More about our weather records

Advertising

Irving weather history for previous 24 hours

 ConditionsComfort  
Time TempWeatherWind HumidityBarometerVisibility
3:53 AM
Oct 31
56 °FClear.12 mph65%30.17 "Hg10 mi
2:53 AM58 °FClear.12 mph62%30.16 "Hg10 mi
1:53 AM58 °FClear.12 mph75%30.16 "Hg10 mi
12:53 AM60 °FClear.10 mph69%30.16 "Hg10 mi
11:53 PM
Oct 30
63 °FClear.9 mph70%30.15 "Hg10 mi
10:53 PM64 °FPassing clouds.12 mph78%30.14 "Hg10 mi
9:53 PM67 °FPassing clouds.7 mph68%30.11 "Hg10 mi
8:53 PM68 °FPassing clouds.No wind68%30.09 "Hg10 mi
7:53 PM68 °FOvercast.3 mph68%30.09 "Hg10 mi
6:53 PM70 °FBroken clouds.9 mph68%30.06 "Hg10 mi
5:53 PM76 °FPartly sunny.6 mph47%30.04 "Hg10 mi
4:53 PM77 °FOvercast.3 mph42%30.05 "Hg10 mi
3:53 PM77 °FScattered clouds.5 mph42%30.04 "Hg10 mi
2:53 PM77 °FScattered clouds.5 mph39%30.06 "Hg10 mi
1:53 PM75 °FScattered clouds.6 mph40%30.08 "Hg10 mi
12:53 PM74 °FPassing clouds.8 mph38%30.11 "Hg10 mi
11:53 AM71 °FPassing clouds.10 mph41%30.14 "Hg10 mi
10:53 AM68 °FPassing clouds.10 mph47%30.15 "Hg10 mi
9:53 AM64 °FPassing clouds.9 mph56%30.15 "Hg10 mi
8:53 AM59 °FPassing clouds.No wind72%30.14 "Hg10 mi
7:53 AM54 °FPassing clouds.3 mph74%30.13 "Hg10 mi
6:53 AM56 °FClear.5 mph70%30.11 "Hg10 mi
5:53 AM55 °FClear.No wind72%30.11 "Hg10 mi
Weather by CustomWeather, © 2014

See weather overviewHow to use our weather pages